Tracking 22836 objects as of 18-Apr-2021
HD Live streaming from Space Station
objects crossing your sky now

DELTA 1 DEB

Track DELTA 1 DEB now!
10-day predictions


NORAD ID: 7027
Int'l Code: 1973-086T
Perigee: 1,492.7 km
Apogee: 1,580.8 km
Inclination: 102.0 °
Period: 116.6 minutes
Semi major axis: 7907 km
RCS: 0.106 m2 (medium)
Launch date: November 6, 1973
Source: United States (US)
Launch site: AIR FORCE WESTERN TEST RANGE (AFWTR)

Note: This is SATELLITE DEBRIS
aabbcc
Your satellite tracking list
Your tracking list is empty




NASA's NSSDC Master Catalog

Two Line Element Set (TLE):
1 07027U 73086T   21107.24163910 -.00000023  00000-0  16743-3 0  9997
2 07027 101.9549  27.5614 0055650 290.2620 225.8152 12.34593573131118
Source of the keplerian elements: AFSPC